Temperature
18 18 18 18 18 17 17 17 17 16 16 16 16 16 15 15 15 15 15 15 15 15 14 14 14 14 14 14 14 14 14 14 14 14 14 14 14 14 14 14 14 13 13
20 19 18 18 18 17 17 17 17 17 16 16 16 16 15 15 15 15 15 15 15 14 14 14 14 14 14 14 14 14 14 14 14 14 14 14 14 14 14 14 13 13 13
20 19 18 18 18 18 17 17 17 17 17 16 16 16 15 15 15 15 15 14 14 14 14 14 14 14 14 14 14 14 14 14 13 14 14 14 14 14 14 14 13 13 13
20 19 19 19 19 18 18 18 18 18 17 17 16 16 15 15 15 15 15 14 14 14 14 14 14 14 14 14 14 14 14 13 13 13 13 13 13 13 13 13 13 13 13
20 19 19 19 19 19 18 18 18 18 18 17 16 16 15 15 15 15 15 15 14 14 14 13 13 13 14 14 14 14 13 13 13 13 13 13 13 13 13 13 13 13 13
20 19 19 18 19 19 19 19 19 18 18 17 16 16 15 15 15 15 15 15 14 14 14 13 13 14 14 14 14 14 13 13 13 13 13 13 13 13 13 13 13 13 13
20 19 18 18 18 19 19 19 19 19 18 17 16 16 15 15 15 15 15 15 14 14 14 14 14 14 14 14 14 14 13 13 13 13 13 12 13 13 13 13 13 13 13
20 19 18 17 18 18 18 19 19 19 18 17 16 16 15 15 15 15 15 15 15 14 14 14 14 14 14 14 14 13 13 13 13 13 12 12 12 12 12 12 12 12 13
19 18 18 17 17 17 18 18 19 19 18 18 17 16 15 15 15 15 15 15 15 15 14 14 14 14 14 14 14 13 13 13 13 13 12 12 12 12 12 12 12 12 12
18 18 18 18 17 17 17 18 18 18 18 18 17 16 15 15 15 15 15 15 15 15 15 14 14 14 14 14 13 13 13 13 13 12 12 12 12 12 12 12 12 11 12
17 18 18 17 17 17 17 17 17 18 18 17 17 16 15 15 15 15 15 15 15 14 14 14 14 14 14 13 13 13 13 13 13 12 12 12 12 12 11 11 11 11 11
18 17 17 17 17 17 17 17 17 17 17 17 17 16 15 15 15 14 14 14 14 14 14 14 14 13 13 13 13 13 13 13 13 12 12 12 11 11 11 11 11 10 10
19 18 18 17 17 17 17 17 16 16 17 17 16 16 15 15 14 14 14 14 14 14 14 13 13 13 13 13 13 13 13 13 13 12 12 11 11 11 10 10 10 10 10
19 18 18 18 17 17 17 17 16 16 16 16 16 16 15 15 15 14 14 14 14 13 13 13 13 13 13 13 13 13 13 13 13 12 12 11 11 10 10 10 9 9 9
19 19 18 18 18 17 17 16 16 16 16 16 16 16 15 15 15 14 14 13 13 13 13 13 13 13 13 13 13 13 13 13 13 12 12 11 10 10 9 9 9 9 9
18 19 18 18 18 17 17 17 16 16 16 15 15 15 15 15 14 14 13 13 13 13 13 12 12 12 12 12 12 12 13 13 12 12 11 11 10 9 9 8 8 8 8
18 18 18 18 18 18 17 17 17 16 16 15 15 15 15 14 14 14 13 13 13 12 12 12 12 12 12 12 12 12 12 12 12 12 11 10 10 9 8 8 8 8 8
19 18 18 18 18 18 18 17 17 16 16 15 15 15 14 14 14 13 13 13 12 12 12 12 12 12 12 12 12 12 12 12 12 11 11 10 9 9 8 8 8 7 7
19 19 19 18 18 18 18 18 17 17 16 16 15 15 14 14 13 13 13 13 12 12 12 12 12 12 12 12 12 12 12 12 11 11 10 9 9 8 8 8 7 7 7
19 19 19 18 18 18 18 17 17 17 16 16 15 15 14 14 13 13 13 12 12 12 12 12 12 12 12 12 12 12 12 11 11 10 10 9 8 8 7 7 7 6 6
18 18 18 18 18 18 17 17 17 17 16 16 15 15 15 14 14 13 13 12 12 12 12 12 12 12 12 12 12 12 11 11 10 9 9 8 7 7 6 6 6 5 5
17 18 18 18 18 18 18 18 17 17 17 17 16 16 15 14 14 13 13 13 12 12 12 12 12 12 12 11 11 11 11 10 9 9 8 7 7 6 6 5 5 5 5
17 17 17 17 17 17 17 17 17 17 17 16 16 15 15 14 14 13 13 13 12 12 12 12 12 12 11 11 11 11 11 11 9 8 8 7 6 6 5 5 4 4 4
17 17 17 17 17 17 17 17 17 17 17 17 16 16 15 15 14 14 13 13 12 12 12 12 11 11 11 11 11 10 10 10 9 8 7 7 6 5 5 4 4 4 4
16 16 16 16 16 17 16 16 16 17 17 17 17 16 16 15 14 14 13 12 12 12 11 11 11 11 11 10 10 10 9 9 8 7 7 6 6 5 5 4 4 4 3
16 16 16 16 16 16 16 16 16 16 16 16 16 16 16 15 14 14 13 12 12 11 11 11 10 10 10 10 9 9 8 8 7 6 5 5 5 5 5 4 4 3 2
Wind_Speed
9 14 22 21 21 21 20 21 21 21 20 20 19 17 16 15 14 12 11 9 8 7 8 10 13 15 15 15 13 12 11 11 10 10 8 7 7 8 9 9 8 6 7
12 18 23 22 22 21 21 20 20 20 20 19 18 17 16 14 13 11 10 9 8 8 8 11 14 15 15 14 12 11 10 9 8 7 5 4 4 6 7 7 6 5 5
17 18 22 22 22 21 21 20 20 20 19 19 18 17 15 14 12 11 10 9 9 9 11 13 16 16 14 13 11 9 8 7 6 5 4 4 3 5 6 5 4 4 3
18 19 20 22 22 22 21 20 20 19 19 19 18 17 15 14 12 11 10 10 10 11 13 15 16 15 14 12 10 8 6 6 7 7 5 5 3 5 5 4 3 3 2
15 18 20 23 22 21 20 20 19 19 19 19 18 17 15 14 12 12 12 11 11 12 13 14 14 13 11 9 8 7 5 6 8 6 6 6 3 5 5 4 3 2 1
12 16 21 22 22 21 20 19 19 19 19 18 18 17 16 14 13 13 12 12 12 12 12 12 12 11 9 8 6 5 4 6 7 6 8 6 3 5 6 6 5 4 4
12 15 20 21 21 21 20 19 19 19 19 19 18 17 16 15 14 14 13 12 12 11 11 11 10 9 8 6 5 4 4 7 8 6 7 5 4 6 8 8 8 8 8
16 15 18 20 20 20 19 19 19 19 19 19 18 17 16 15 15 14 13 12 11 11 10 9 9 8 7 5 4 3 4 7 7 7 6 5 6 8 8 9 10 10 11
15 13 14 17 18 19 19 19 19 19 19 19 18 17 16 16 16 15 13 12 11 10 9 9 8 7 6 4 2 2 4 5 6 6 5 5 7 8 9 10 11 12 14
12 13 12 14 15 15 17 18 18 18 18 18 17 17 17 17 16 15 13 12 11 9 9 8 7 6 5 3 2 4 6 7 8 7 5 6 8 9 10 11 11 12 12
13 12 11 11 13 14 15 17 18 18 18 17 16 18 17 16 15 15 14 12 11 10 9 8 6 5 3 2 4 6 8 9 9 7 5 7 10 11 11 11 11 11 11
16 15 13 12 12 13 14 14 14 15 15 15 15 16 15 14 14 14 15 14 12 10 9 7 6 4 2 2 5 7 9 10 9 7 6 9 11 11 11 11 11 11 11
17 16 15 14 13 13 9 11 11 11 12 14 16 16 14 13 12 12 12 11 11 10 7 5 4 3 4 4 6 8 9 10 9 8 8 10 11 11 11 11 10 10 10
16 18 17 16 14 13 12 10 11 9 10 10 14 16 12 8 8 9 9 10 10 8 6 4 4 5 6 6 7 8 9 9 9 9 10 11 11 11 10 10 9 9 9
16 17 17 18 17 15 12 10 11 10 11 13 14 16 15 8 6 7 8 9 10 9 7 6 5 6 6 6 7 8 8 8 9 10 10 12 12 11 9 8 8 8 8
13 16 17 18 18 16 14 13 11 12 13 14 14 16 17 14 10 8 6 7 8 9 9 8 7 6 4 5 5 6 7 8 9 10 11 12 12 10 9 8 7 8 8
11 13 16 19 18 18 17 15 11 13 14 12 14 17 18 16 14 10 6 6 8 11 11 9 7 6 4 4 4 4 5 6 8 9 10 11 11 10 8 7 7 7 8
10 12 15 16 18 19 17 15 11 12 13 12 15 17 18 19 17 12 7 6 11 12 10 5 5 4 4 3 2 2 2 4 6 9 9 10 10 8 7 6 5 6 7
11 12 14 15 17 19 18 15 13 11 12 12 14 14 17 19 18 13 8 8 13 9 5 6 3 4 3 2 1 2 2 2 4 7 8 9 9 8 6 5 4 4 5
10 11 13 14 16 17 15 11 10 11 11 10 11 12 16 17 18 14 9 10 11 7 6 6 5 3 3 2 2 2 1 1 2 4 6 7 8 7 7 5 3 2 3
9 9 11 13 14 13 11 12 13 13 11 11 10 13 16 16 17 13 9 9 8 8 8 8 5 4 3 2 3 2 2 2 1 1 2 3 4 5 5 4 2 1 3
9 9 10 12 13 14 14 15 13 13 10 10 9 10 15 16 17 14 13 11 10 8 9 7 6 4 3 2 3 2 1 2 2 1 0 1 1 2 2 1 1 3 5
9 10 10 12 13 14 13 8 6 4 3 3 7 9 10 14 16 14 13 12 11 10 10 8 7 7 4 2 2 3 3 4 2 2 2 2 1 2 1 2 4 7 8
10 9 9 10 11 12 12 11 14 12 10 10 9 8 9 10 13 15 14 12 11 9 10 8 6 5 6 4 2 2 2 3 3 1 2 2 2 1 1 3 6 9 10
6 5 6 7 9 10 12 15 17 12 9 6 7 9 8 7 9 12 13 12 11 9 10 8 7 6 4 4 4 2 2 2 2 2 3 4 3 2 2 3 6 7 9
4 3 3 5 7 8 11 14 16 15 12 11 10 11 8 6 6 9 10 10 10 9 10 9 8 8 5 5 4 3 3 3 2 2 3 3 3 4 3 4 3 3 7
Wind_Direction
158 162 153 148 142 138 136 135 134 133 131 128 125 122 120 118 117 115 113 114 121 128 135 138 138 128 119 111 104 97 92 89 85 80 75 71 70 77 79 76 77 78 83
149 157 153 149 144 141 139 137 136 136 134 132 130 128 126 124 122 119 116 113 114 123 129 134 136 131 122 114 107 99 95 90 84 77 81 84 68 77 83 81 81 88 83
147 154 152 150 146 143 141 140 140 140 140 137 134 132 130 127 125 124 120 115 110 114 118 120 123 124 120 115 108 102 96 85 69 58 95 141 108 89 87 85 82 84 79
148 152 154 151 148 146 144 144 144 144 143 141 138 135 132 129 128 127 125 119 111 111 113 115 115 115 115 112 108 104 94 70 46 51 94 148 142 90 90 85 77 69 58
146 151 156 153 150 149 148 148 148 148 147 145 142 138 134 131 130 129 126 123 116 113 113 114 114 114 114 113 111 106 85 47 34 62 119 142 139 86 84 79 66 54 31
141 148 157 155 153 152 151 151 152 153 152 150 146 142 137 133 132 130 127 126 123 120 119 117 117 118 120 119 115 103 65 37 42 86 127 136 118 84 76 67 58 52 43
143 149 158 157 156 155 154 154 155 155 155 153 151 149 144 138 136 135 134 133 131 129 127 126 125 126 125 121 113 86 43 36 57 102 129 125 103 83 72 64 59 56 55
149 153 161 160 159 158 158 158 158 158 158 157 156 155 150 146 143 143 143 142 140 137 136 135 134 133 131 126 111 66 36 46 69 100 113 103 94 84 74 67 63 61 61
151 155 160 162 163 162 162 162 163 162 161 162 163 162 156 152 152 153 153 152 148 145 143 142 142 140 139 135 111 45 31 61 103 118 108 98 92 85 81 77 69 66 63
156 161 161 163 165 165 166 167 167 165 165 165 164 161 159 159 161 162 162 162 159 156 154 153 150 150 149 137 80 47 59 82 103 109 107 102 95 92 87 79 73 68 64
166 168 167 165 167 168 170 174 171 171 172 169 165 163 162 165 167 169 171 171 169 169 168 166 163 160 154 96 62 68 80 98 103 101 101 102 97 94 89 82 76 71 66
177 178 176 174 172 171 176 176 176 176 177 173 169 167 167 169 172 174 178 178 178 179 180 178 171 167 160 73 69 83 92 105 102 97 100 103 100 97 91 84 77 71 64
181 182 183 182 179 177 178 174 179 179 178 178 177 176 173 173 175 177 178 182 183 184 184 175 147 134 125 104 95 96 103 104 100 94 100 105 104 101 94 85 77 68 60
183 189 186 186 184 184 181 180 182 182 183 185 188 186 176 174 177 176 179 181 182 183 178 166 141 125 112 109 108 105 106 109 107 98 99 105 106 104 96 86 75 64 52
188 193 190 188 188 186 184 184 186 189 191 193 194 194 185 179 181 181 185 183 186 183 170 155 138 122 108 99 97 103 106 116 118 108 104 107 107 105 98 85 69 55 42
198 197 193 193 192 189 189 189 189 192 193 195 199 197 191 187 183 182 180 180 181 177 165 152 140 123 106 97 85 95 107 120 126 122 115 112 112 110 101 86 67 50 35
208 202 196 197 194 193 193 192 192 193 193 195 200 200 193 189 184 181 177 175 173 164 149 134 122 107 94 83 78 87 107 125 138 138 131 124 120 116 110 94 70 49 33
210 207 202 200 197 196 196 195 194 193 193 196 196 198 194 189 183 176 172 170 161 152 143 133 126 103 90 89 85 71 96 128 143 151 148 144 140 135 128 113 84 53 32
217 209 207 202 197 199 199 196 195 192 194 194 193 193 192 187 180 172 167 160 154 146 141 140 123 122 117 111 116 100 98 133 148 158 162 167 165 159 151 135 106 69 31
231 215 209 207 201 200 199 194 193 193 194 192 192 191 185 184 177 167 161 158 154 146 142 135 125 102 109 124 94 73 53 122 140 160 172 178 184 178 167 151 135 88 14
243 227 215 210 207 199 195 192 192 197 196 194 193 189 185 179 173 166 162 160 159 157 155 143 125 115 97 99 96 54 18 35 101 150 169 174 182 177 166 165 180 251 318
243 236 226 217 211 204 200 198 197 193 193 192 188 186 184 177 173 171 165 168 163 151 149 150 138 126 110 89 128 123 46 343 343 25 69 170 156 127 120 119 299 304 307
247 240 233 223 217 211 204 191 165 133 112 154 186 188 185 177 174 170 169 165 164 160 164 161 149 140 141 100 94 149 157 215 271 332 12 47 90 97 61 25 353 335 324
249 246 240 234 224 213 198 184 177 182 185 190 187 182 173 174 172 169 167 163 162 158 157 158 147 141 137 140 109 72 110 140 157 287 327 3 19 84 22 349 339 336 339
259 258 251 243 233 217 200 192 192 194 185 165 155 158 163 164 167 165 163 158 157 153 148 142 136 132 127 139 144 133 105 80 105 155 266 315 331 315 317 315 320 335 351
287 283 268 251 243 223 206 198 196 187 166 157 161 166 164 155 155 159 155 153 149 147 143 139 132 127 121 122 125 131 140 146 157 159 217 269 289 292 296 293 305 337 357
Height
1511 1514 1516 1518 1520 1522 1524 1526 1528 1529 1530 1531 1532 1532 1533 1533 1534 1534 1533 1533 1533 1534 1534 1535 1536 1538 1539 1539 1540 1540 1539 1539 1539 1539 1539 1539 1539 1539 1539 1539 1539 1539 1539
1510 1513 1516 1518 1520 1522 1524 1526 1527 1528 1529 1530 1531 1531 1532 1532 1532 1532 1532 1532 1533 1533 1534 1535 1537 1538 1539 1540 1540 1540 1539 1539 1539 1539 1539 1539 1539 1539 1539 1539 1539 1539 1540
1511 1513 1515 1518 1520 1522 1524 1525 1526 1528 1529 1529 1530 1530 1531 1531 1531 1531 1531 1532 1533 1534 1535 1536 1537 1538 1539 1540 1540 1540 1540 1540 1539 1539 1540 1540 1539 1540 1540 1540 1540 1540 1540
1511 1513 1515 1518 1520 1522 1523 1525 1526 1527 1528 1529 1529 1530 1531 1531 1531 1531 1532 1532 1533 1534 1536 1537 1538 1539 1540 1540 1540 1540 1540 1540 1540 1540 1540 1540 1540 1541 1541 1541 1541 1541 1541
1511 1513 1515 1517 1520 1521 1523 1524 1526 1527 1528 1528 1529 1530 1531 1531 1532 1532 1532 1533 1534 1535 1536 1538 1539 1540 1540 1541 1541 1541 1541 1541 1541 1541 1541 1541 1542 1542 1542 1542 1542 1542 1542
1511 1513 1515 1517 1519 1521 1523 1524 1525 1526 1527 1528 1529 1530 1531 1532 1532 1533 1533 1534 1535 1536 1537 1538 1539 1540 1541 1541 1541 1541 1542 1542 1542 1542 1542 1542 1543 1543 1543 1543 1543 1542 1542
1510 1512 1515 1517 1519 1521 1522 1524 1525 1526 1527 1528 1529 1531 1532 1532 1533 1534 1534 1535 1536 1537 1538 1539 1540 1541 1541 1542 1542 1542 1542 1542 1542 1542 1543 1543 1544 1543 1543 1543 1543 1542 1542
1510 1512 1514 1517 1519 1521 1522 1523 1525 1526 1527 1528 1529 1531 1532 1533 1534 1535 1535 1536 1537 1538 1539 1540 1540 1541 1542 1542 1543 1543 1543 1542 1542 1543 1543 1543 1544 1543 1543 1543 1542 1542 1541
1510 1512 1514 1516 1518 1520 1522 1523 1524 1525 1527 1528 1529 1531 1532 1533 1534 1535 1536 1537 1538 1538 1539 1540 1541 1541 1542 1542 1543 1543 1543 1542 1542 1543 1543 1543 1543 1543 1542 1542 1541 1541 1540
1510 1512 1513 1515 1517 1519 1521 1522 1524 1525 1526 1527 1529 1530 1531 1533 1534 1535 1536 1537 1538 1539 1540 1540 1541 1542 1542 1542 1542 1542 1542 1542 1542 1542 1542 1542 1542 1542 1541 1540 1540 1539 1539
1509 1511 1512 1514 1516 1518 1520 1521 1523 1524 1525 1527 1528 1529 1530 1532 1533 1535 1536 1537 1538 1539 1540 1540 1541 1541 1542 1542 1542 1542 1542 1542 1542 1542 1542 1542 1541 1540 1539 1539 1538 1537 1537
1506 1509 1511 1513 1515 1516 1518 1520 1521 1522 1524 1525 1527 1528 1529 1531 1532 1534 1535 1536 1537 1538 1539 1540 1540 1541 1541 1541 1541 1541 1541 1541 1541 1541 1541 1540 1540 1539 1538 1537 1536 1536 1535
1504 1507 1509 1511 1512 1514 1515 1517 1519 1520 1522 1523 1525 1527 1528 1529 1531 1532 1534 1535 1536 1537 1538 1539 1539 1540 1540 1541 1541 1541 1540 1540 1540 1540 1539 1539 1538 1537 1536 1535 1535 1534 1533
1502 1504 1506 1508 1510 1511 1513 1515 1516 1518 1520 1521 1523 1525 1526 1527 1529 1530 1532 1534 1535 1536 1537 1538 1539 1539 1539 1540 1540 1539 1539 1539 1538 1538 1537 1537 1536 1535 1534 1534 1533 1532 1532
1499 1501 1503 1505 1507 1508 1510 1512 1514 1515 1517 1519 1521 1522 1524 1525 1527 1529 1530 1532 1533 1535 1536 1537 1538 1538 1538 1539 1539 1538 1538 1538 1537 1536 1535 1535 1534 1534 1533 1532 1532 1531 1530
1496 1498 1500 1501 1503 1505 1506 1508 1510 1512 1515 1517 1518 1520 1521 1523 1525 1526 1528 1530 1532 1533 1534 1536 1536 1537 1537 1538 1537 1537 1536 1536 1535 1534 1533 1533 1533 1532 1531 1531 1530 1529 1528
1493 1495 1496 1498 1500 1501 1503 1505 1507 1509 1511 1513 1515 1517 1519 1520 1522 1524 1526 1528 1529 1531 1533 1534 1535 1536 1536 1536 1536 1535 1535 1534 1533 1532 1532 1531 1531 1530 1530 1529 1528 1527 1526
1488 1490 1492 1494 1495 1497 1499 1501 1503 1505 1508 1510 1512 1514 1516 1517 1519 1521 1523 1525 1527 1529 1530 1532 1533 1534 1534 1535 1534 1534 1533 1532 1531 1530 1530 1529 1529 1529 1528 1527 1527 1526 1524
1482 1485 1487 1489 1490 1492 1495 1497 1499 1501 1503 1506 1508 1510 1512 1514 1516 1518 1520 1523 1525 1526 1528 1530 1531 1532 1532 1533 1532 1532 1531 1530 1529 1528 1528 1527 1527 1527 1526 1525 1524 1523 1522
1476 1478 1480 1483 1485 1487 1490 1492 1495 1497 1499 1501 1503 1505 1508 1510 1512 1515 1517 1519 1521 1523 1525 1527 1528 1529 1530 1530 1530 1529 1528 1527 1527 1526 1526 1525 1525 1524 1524 1523 1522 1520 1519
1469 1471 1473 1476 1478 1481 1483 1485 1488 1490 1493 1496 1498 1501 1503 1506 1508 1510 1513 1515 1518 1520 1522 1524 1525 1526 1527 1527 1527 1527 1526 1525 1524 1524 1523 1523 1523 1522 1521 1520 1518 1517 1515
1462 1464 1466 1468 1471 1473 1475 1477 1480 1483 1486 1489 1492 1496 1498 1501 1503 1506 1508 1511 1514 1516 1518 1520 1521 1522 1523 1524 1524 1524 1523 1523 1521 1521 1521 1520 1520 1519 1518 1517 1515 1513 1511
1456 1458 1459 1461 1464 1466 1468 1471 1474 1477 1480 1483 1486 1489 1492 1495 1498 1500 1503 1507 1509 1512 1514 1516 1517 1519 1519 1520 1520 1521 1520 1519 1519 1518 1517 1517 1516 1516 1515 1514 1512 1510 1507
1450 1452 1453 1454 1456 1459 1461 1463 1465 1467 1469 1473 1478 1482 1486 1489 1492 1495 1499 1502 1504 1507 1509 1512 1513 1515 1515 1516 1516 1516 1516 1516 1516 1514 1514 1513 1513 1512 1511 1510 1508 1505 1502
1445 1446 1446 1448 1449 1451 1453 1455 1458 1460 1463 1467 1471 1475 1479 1483 1486 1490 1493 1496 1499 1502 1505 1507 1508 1510 1511 1511 1512 1512 1511 1511 1511 1511 1510 1510 1509 1508 1507 1506 1503 1500 1497
1440 1441 1441 1442 1442 1444 1446 1447 1450 1453 1457 1460 1464 1468 1472 1476 1480 1483 1487 1490 1493 1496 1499 1502 1504 1506 1507 1507 1508 1508 1508 1507 1506 1506 1505 1503 1503 1502 1501 1500 1498 1495 1492